CAPE
0 13 124 869 794 431 62 43 10 5 0 3 0 228 551 530 291 290 620 688 758 1103 1302 1289 1431 1803 1687 1330 1848 1836 1486 1215 1751 1661 1670 1793 1563 1776 1816 1696 2034 2077 1857 1546 1680 1629 1749 1686 1853
1 82 852 1139 349 70 98 38 36 39 51 11 208 438 628 437 249 323 390 515 646 851 1203 1105 1475 1633 1800 1546 1297 1381 1559 1560 1500 982 1106 1414 1392 1709 1729 1877 1759 1889 1932 1744 1252 1616 1725 1691 1816
206 727 1154 767 257 38 71 46 31 70 3 163 371 493 454 251 112 192 258 446 555 647 711 1171 1456 1651 1665 1717 1692 1648 1450 1502 1229 1531 1655 1402 1424 1558 1494 1457 1672 1814 1650 1434 1426 1300 1378 1326 1553
1105 1344 1127 535 95 112 98 27 20 13 30 148 329 260 103 81 151 155 354 375 536 584 1019 1250 1646 1673 1514 1358 1495 1617 1589 1549 1517 1545 1405 1585 1643 1546 1420 1359 1520 1506 1477 1547 1419 1543 1606 1311 1473
858 850 447 270 135 97 24 42 61 66 89 129 117 0 11 208 153 133 296 295 424 409 646 1041 1433 1625 1631 1527 1549 1581 1533 1710 1624 1616 1389 1434 1298 1399 1474 1428 1446 1529 1561 1485 1456 1601 1655 1635 1390
1097 708 325 101 74 59 150 145 153 123 153 45 10 0 186 136 62 96 178 199 151 518 607 952 1333 1483 1445 1474 1387 1471 1614 1609 1550 1507 1512 1189 1520 1377 1368 1297 1575 1611 1630 1419 1589 1595 1579 1636 1282
819 240 282 207 51 184 202 101 120 114 51 29 0 0 67 65 34 64 114 157 135 235 295 595 830 1244 620 1294 1334 1521 1584 1344 1527 1328 1152 926 772 807 944 1096 1326 1586 1480 1559 1585 1362 1583 1442 1425
433 378 441 400 178 358 34 5 0 0 0 0 0 0 0 38 34 42 60 99 109 427 565 260 605 303 132 247 1196 1476 1340 1364 1139 934 790 854 889 1078 993 954 1176 1360 1619 1450 1551 1276 1516 1250 1519
8 279 291 101 244 336 60 79 0 0 0 0 0 0 0 0 2 18 32 38 89 177 117 99 309 207 471 516 722 736 987 1041 1039 1119 1262 691 740 743 582 884 948 937 1179 1300 1103 1281 1167 814 777
13 46 147 431 500 303 101 101 0 9 22 9 0 0 0 0 0 0 0 0 2 89 44 65 137 207 290 244 573 955 977 1074 1146 1309 1124 581 779 994 765 715 950 1063 998 1333 908 859 723 1168 855
284 7 31 331 496 99 138 153 0 6 52 46 23 0 0 0 0 0 0 0 0 1 1 31 203 371 477 672 884 962 1053 1129 1244 1557 1480 1192 713 794 871 644 703 763 894 477 422 579 829 934 733
171 2 15 228 493 468 513 36 10 15 95 0 0 6 0 0 0 0 0 0 0 0 0 0 189 482 621 690 861 1033 1093 1050 744 1298 1527 1317 1105 870 1017 1207 993 868 835 778 671 779 994 842 1073
191 61 78 193 466 496 379 204 183 298 0 0 0 0 0 0 0 0 0 0 0 0 0 10 165 328 448 665 886 1160 930 799 1061 1196 1500 1213 803 743 608 880 864 843 848 747 807 905 978 1260 1157
131 165 267 360 501 427 511 415 416 205 0 0 0 0 3 0 0 0 0 0 0 0 0 5 67 238 434 628 1174 1168 1053 1127 1050 1219 1068 1293 433 628 748 616 538 609 474 453 610 829 1153 1149 991
275 384 467 547 333 281 228 146 93 231 25 10 0 0 10 0 0 0 0 0 0 0 0 0 166 418 619 987 1025 1092 1167 1124 964 1177 1324 1026 825 976 807 676 460 443 640 928 1175 1320 1256 1122 982
193 239 155 533 374 362 187 151 51 30 20 18 0 0 0 27 0 0 0 0 0 0 0 91 151 433 662 813 939 1032 1169 1120 831 966 904 1084 1052 1219 802 896 1028 1050 1064 1077 1174 1309 1329 1237 970
90 88 47 90 325 324 195 204 329 43 57 98 0 1 0 14 0 1 0 0 0 0 92 271 372 420 616 1172 1039 1131 1405 1346 1038 1171 1054 1592 1454 1241 876 695 1071 1639 1225 1158 1262 1344 1472 888 915
5 31 17 3 59 133 298 183 274 135 58 300 46 2 0 0 0 0 0 2 0 10 197 420 552 599 997 1030 1185 727 848 1171 1102 1210 1476 1934 1618 1733 1264 1019 1400 1637 1179 1269 1378 1825 1364 1395 1010
1 41 37 0 18 84 115 124 118 246 90 123 243 15 0 0 0 0 0 0 4 62 209 424 606 981 1036 876 858 743 511 820 1132 1433 2081 2283 1882 1917 1780 1163 1679 1894 1514 1537 2239 1971 2075 843 1401
18 35 43 0 23 32 3 0 6 58 242 200 394 104 5 0 0 0 0 0 22 75 179 420 593 1138 1084 908 1040 1045 514 706 1076 1362 1860 1704 1785 1774 1543 1066 1383 1651 1476 1847 2217 2096 747 890 1465
29 17 61 35 8 3 0 5 0 0 180 194 510 244 83 0 0 0 0 0 0 40 141 316 643 1021 1127 863 1343 1056 1477 1205 1274 1400 1047 1147 1577 1688 1297 1497 1280 1878 1392 1019 1776 1848 1484 703 1229
44 35 29 8 13 36 0 45 0 5 90 257 348 275 156 35 0 0 0 0 0 2 62 142 621 1015 1286 1304 1050 1057 432 566 683 1115 1185 1220 1344 1895 2106 1346 1353 1536 677 693 1134 1202 1294 1053 778
8 65 27 23 18 12 0 0 37 4 23 160 347 362 288 191 3 0 0 0 0 0 0 87 450 1026 1056 1369 1003 1491 743 614 766 863 1549 1709 1892 2113 2032 1766 1923 2297 1025 789 1124 1154 983 706 476
8 23 8 10 34 25 3 0 7 7 3 23 314 411 313 357 206 3 0 0 0 0 0 46 374 924 1284 1405 1376 1324 1053 958 802 1244 1576 1350 1190 1587 2116 1957 2575 2786 1883 1229 880 1280 1276 944 709
4 35 21 16 30 22 35 0 2 0 0 1 83 392 318 354 396 214 4 0 0 0 0 0 288 870 1068 1302 1085 1256 1464 1547 1738 1846 1404 1264 1012 922 2153 2606 2964 2681 2728 2133 1382 762 614 768 449
0 7 14 16 8 8 22 0 0 0 0 0 14 155 275 243 407 462 260 52 16 18 20 82 270 780 843 985 1027 1170 1472 1380 1354 1978 1097 1392 943 929 1774 2273 2417 2580 2737 2658 2522 1396 1088 580 155
0 0 0 7 20 4 11 0 0 0 0 0 12 12 237 150 198 401 475 303 163 136 122 175 287 774 794 813 887 1144 1596 1524 1173 1474 2042 1577 1592 1374 2030 1766 1983 2367 2819 2798 2751 2053 1830 936 650
0 0 0 0 0 0 6 0 4 0 0 0 0 0 0 91 54 158 388 463 337 293 281 353 338 809 720 698 598 851 1244 1695 1589 2103 2191 1539 1721 1935 1754 2076 1992 2058 2517 2891 2962 2332 2506 2117 1641
0 0 0 0 0 0 0 0 0 0 0 0 0 0 4 40 44 100 285 272 442 390 397 502 503 643 632 736 748 777 796 1360 1790 1673 1812 2074 2229 2381 1896 2236 2385 2342 2354 2933 3261 3061 2528 2805 2453
0 0 0 0 0 0 0 0 3 0 0 44 127 551 188 72 97 149 395 353 511 554 535 577 554 546 876 991 1178 1117 804 1031 1382 1596 1610 2148 2323 2538 2435 2248 2391 2476 2547 2743 3180 3175 2753 2922 2802
CIN
-0 -146 -80 -4 -0 -16 -1 -1 -13 -20 -1 -4 -0 -2 -6 -20 -9 -12 -10 -3 -1 -0 -1 -0 -1 -0 -0 -4 -0 -0 -0 -5 -0 -0 -1 -0 -1 -0 -0 -0 -0 -0 -0 -0 -0 -0 -0 -3 -0
-75 -125 -6 -1 -7 -2 -1 -3 -3 -3 -21 -18 -27 -7 -0 -22 -89 -68 -27 -8 -2 -1 -0 -0 -2 -1 -0 -0 -3 -0 -0 -0 -2 -5 -2 -3 -4 -0 -0 -0 -0 -0 -0 -0 -1 -0 -0 -0 -0
-38 -8 -0 -4 -0 -7 -2 -2 -14 -27 -6 -20 -13 -9 -5 -48 -75 -46 -44 -13 -2 -0 -0 -0 -0 -0 -1 -0 -0 -0 -1 -0 -3 -0 -0 -0 -0 -1 -0 -0 -1 -1 -1 -2 -1 -0 -0 -0 -0
-1 -0 -7 -8 -21 -15 -14 -29 -25 -37 -15 -36 -2 -26 -71 -75 -38 -40 -15 -9 -1 -0 -0 -2 -0 -0 -2 -3 -1 -0 -0 -0 -0 -0 -1 -0 -0 -0 -0 -0 -2 -3 -2 -2 -1 -0 -0 -4 -6
-10 -3 -5 -1 -5 -25 -44 -16 -10 -4 -7 -17 -15 -0 -67 -26 -32 -27 -9 -6 -0 -1 -0 -0 -0 -0 -0 -0 -0 -0 -0 -0 -0 -0 -0 -0 -1 -0 -1 -0 -1 -2 -2 -2 -0 -0 -0 -1 -6
-1 -18 -2 -6 -20 -21 -3 -1 -2 -8 -10 -54 -23 -0 -25 -26 -64 -26 -16 -11 -15 -0 -0 -0 -1 -0 -0 -0 -0 -0 -0 -0 -0 -0 -0 -3 -0 -0 -0 -5 -2 -1 -0 -3 -5 -6 -6 -6 -22
-0 -25 -1 -1 -24 -1 -4 -14 -2 -15 -23 -28 -0 -0 -52 -57 -66 -39 -32 -18 -29 -2 -2 -0 -0 -0 -12 -0 -0 -0 -0 -1 -0 -0 -7 -14 -20 -18 -14 -11 -5 -0 -0 -3 -6 -17 -12 -21 -20
-31 -41 -1 -1 -1 -1 -83 -12 -0 -0 -0 -0 -0 -0 -0 -97 -78 -45 -45 -40 -38 -1 -1 -3 -0 -6 -30 -27 -0 -0 -0 -0 -1 -10 -13 -10 -9 -9 -17 -11 -9 -8 -1 -6 -5 -19 -10 -25 -23
-165 -17 -2 -20 -2 -14 -43 -14 -0 -0 -0 -0 -0 -0 -0 -0 -2 -69 -65 -61 -61 -23 -29 -32 -4 -29 -3 -0 -3 -11 -3 -3 -7 -4 -2 -14 -0 -2 -18 -8 -17 -15 -7 -3 -20 -21 -26 -43 -41
-68 -37 -22 -22 -12 -16 -33 -15 -0 -71 -53 -50 -0 -0 -0 -0 -0 -0 -0 -0 -5 -34 -58 -31 -26 -14 -5 -1 -1 -1 -0 -0 -1 -0 -0 -1 -0 -0 -1 -15 -10 -17 -29 -14 -41 -45 -40 -38 -1
-31 -26 -47 -17 -16 -80 -29 -30 -0 -13 -37 -68 -122 -0 -0 -0 -0 -0 -0 -0 -0 -0 -1 -59 -7 -2 -1 -0 -1 -0 -0 -2 -1 -0 -0 -0 -0 -2 -0 -12 -23 -26 -28 -12 -30 -50 -0 -0 -1
-9 -65 -68 -36 -1 -10 -9 -104 -45 -6 -45 -0 -9 -106 -0 -0 -0 -0 -0 -0 -0 -0 -0 -0 -16 -0 -1 -1 -1 -0 -1 -0 -0 -1 -0 -0 -2 -0 -0 -0 -1 -4 -2 -4 -2 -1 -2 -1 -2
-7 -16 -30 -38 -26 -12 -38 -24 -30 -30 -0 -0 -0 -0 -0 -0 -0 -0 -0 -0 -0 -0 -0 -37 -46 -14 -7 -4 -0 -1 -1 -0 -0 -1 -0 -1 -1 -4 -24 -16 -6 -3 -7 -12 -2 -7 -1 -4 -0
-27 -24 -29 -22 -34 -22 -1 -3 -4 -23 -0 -0 -0 -0 -38 -0 -0 -0 -0 -0 -0 -0 -0 -42 -102 -46 -20 -3 -0 -0 -0 -3 -0 -0 -2 -1 -18 -28 -18 -30 -37 -31 -36 -40 -22 -12 -2 -1 -1
-32 -16 -19 -16 -31 -19 -22 -57 -54 -33 -68 -107 -0 -0 -76 -0 -0 -0 -0 -0 -0 -0 -0 -0 -27 -14 -7 -0 -5 -0 -0 -1 -1 -0 -16 -24 -14 -20 -17 -10 -35 -50 -40 -30 -22 -14 -10 -0 -3
-17 -10 -27 -13 -17 -23 -27 -2 -72 -90 -54 -79 -0 -0 -0 -63 -0 -0 -0 -0 -0 -0 -0 -36 -8 -1 -1 -1 -1 -1 -1 -1 -1 -1 -10 -27 -37 -23 -18 -3 -2 -11 -14 -2 -1 -1 -1 -0 -9
-26 -4 -3 -35 -21 -21 -16 -1 -14 -55 -29 -22 -0 -35 -0 -81 -0 -0 -0 -0 -0 -0 -35 -13 -3 -1 -1 -0 -1 -1 -2 -0 -0 -1 -1 -13 -12 -24 -7 -3 -10 -20 -1 -0 -1 -1 -1 -9 -15
-3 -1 -1 -5 -36 -72 -20 -6 -5 -33 -44 -1 -25 -82 -0 -0 -0 -0 -0 -2 -0 -28 -29 -0 -4 -1 -0 -1 -0 -2 -1 -2 -1 -0 -0 -3 -3 -17 -13 -8 -19 -4 -0 -0 -1 -2 -1 -2 -13
-1 -4 -4 -0 -56 -77 -31 -18 -22 -10 -30 -19 -1 -83 -0 -0 -0 -0 -0 -0 -3 -70 -19 -9 -2 -1 -2 -2 -1 -2 -2 -2 -0 -0 -1 -2 -1 -8 -21 -1 -9 -2 -2 -2 -13 -6 -8 -11 -4
-1 -2 -2 -0 -53 -41 -11 -0 -12 -71 -36 -5 -1 -47 -33 -0 -0 -0 -0 -0 -95 -64 -27 -15 -8 -1 -6 -1 -0 -4 -2 -2 -1 -1 -0 -1 -2 -11 -10 -7 -6 -5 -0 -13 -14 -16 -20 -17 -14
-4 -2 -1 -3 -13 -20 -0 -39 -0 -0 -44 -39 -1 -5 -49 -0 -0 -0 -0 -0 -0 -100 -66 -19 -11 -9 -3 -1 -0 -9 -0 -1 -1 -1 -1 -3 -8 -11 -8 -10 -2 -13 -7 -2 -15 -16 -16 -13 -31
-4 -4 -3 -3 -16 -5 -0 -4 -0 -19 -65 -46 -13 -12 -13 -75 -0 -0 -0 -0 -0 -11 -82 -58 -15 -14 -6 -13 -3 -3 -6 -2 -3 -0 -0 -2 -2 -0 -2 -11 -16 -23 -28 -24 -19 -27 -27 -56 -29
-2 -3 -2 -2 -3 -4 -0 -0 -2 -10 -32 -59 -29 -49 -30 -35 -137 -5 -0 -0 -0 -0 -0 -88 -30 -12 -6 -12 -5 -3 -2 -2 -1 -1 -5 -0 -1 -0 -0 -9 -11 -10 -41 -62 -48 -70 -81 -80 -108
-2 -3 -2 -3 -4 -1 -2 -0 -4 -5 -8 -63 -35 -45 -51 -29 -52 -108 -0 -0 -0 -0 -0 -108 -55 -28 -12 -15 -23 -16 -1 -2 -2 -1 -5 -1 -1 -1 -6 -8 -5 -1 -17 -64 -87 -81 -83 -112 -131
-2 -2 -2 -2 -2 -3 -5 -0 -3 -0 -0 -10 -87 -56 -80 -67 -45 -62 -87 -0 -0 -0 -0 -0 -75 -39 -20 -12 -17 -22 -3 -7 -1 -5 -2 -1 -0 -3 -2 -1 -0 -1 -7 -28 -81 -155 -156 -157 -196
-0 -3 -6 -4 -3 -4 -5 -0 -0 -0 -0 -0 -48 -54 -47 -79 -62 -59 -83 -129 -175 -177 -89 -71 -74 -55 -45 -24 -24 -26 -13 -4 -1 -5 -2 -1 -2 -2 -1 -0 -0 -0 -0 -4 -18 -77 -120 -193 -276
-0 -0 -0 -5 -5 -3 -5 -0 -0 -0 -0 -0 -42 -41 -60 -87 -96 -75 -57 -92 -110 -122 -116 -89 -82 -72 -79 -61 -58 -35 -17 -9 -1 -1 -5 -2 -3 -1 -1 -6 -0 -1 -1 -0 -4 -22 -59 -162 -212
-0 -0 -0 -0 -0 -0 -4 -0 -2 -0 -0 -0 -0 -0 -0 -83 -107 -81 -50 -65 -109 -113 -101 -79 -91 -91 -95 -90 -94 -68 -31 -17 -13 -6 -6 -1 -8 -12 -0 -2 -3 -1 -0 -1 -1 -1 -8 -54 -83
-0 -0 -0 -0 -0 -0 -0 -0 -0 -0 -0 -0 -0 -0 -50 -89 -93 -91 -42 -61 -91 -97 -84 -86 -95 -118 -98 -94 -85 -90 -75 -19 -11 -8 -12 -5 -8 -19 -19 -10 -0 -0 -1 -0 -0 -0 -1 -7 -27
-0 -0 -0 -0 -0 -0 -0 -0 -22 -0 -0 -63 -61 -86 -95 -97 -93 -81 -55 -57 -95 -86 -83 -104 -99 -127 -117 -91 -62 -70 -87 -44 -20 -21 -17 -9 -7 -10 -19 -16 -10 -1 -1 -0 -0 -1 -1 -0 -2
Wind_Speed
26 23 18 17 21 22 27 27 27 28 27 24 26 20 24 18 18 22 27 26 27 25 23 26 26 26 26 27 22 21 21 19 16 13 14 15 16 13 17 11 9 5 7 8 8 7 7 7 7
24 21 17 18 23 26 26 27 27 26 25 28 25 24 21 22 24 30 28 28 28 26 26 26 26 26 24 25 20 21 21 20 16 11 10 11 13 15 15 12 15 12 9 4 4 6 6 6 6
23 19 18 19 19 22 25 26 25 25 27 25 21 21 19 22 29 26 29 29 29 28 27 27 26 24 23 24 22 19 17 16 10 8 11 11 11 11 12 13 13 11 12 9 0 9 9 9 10
22 19 19 21 23 23 26 25 26 25 24 19 23 23 24 27 25 28 30 30 29 28 28 26 26 25 21 19 20 20 17 9 6 8 7 12 13 14 13 13 14 14 14 11 6 14 11 10 8
19 19 20 23 21 25 26 26 23 22 21 21 19 24 28 23 28 31 30 30 29 28 29 27 26 24 19 16 13 11 11 13 13 8 12 14 16 15 13 12 16 16 17 19 15 14 12 14 8
20 18 23 22 22 24 25 23 22 21 22 23 26 28 25 26 30 30 30 30 29 29 29 29 28 27 27 23 20 18 18 18 16 13 15 14 14 12 12 12 13 19 22 20 12 15 11 10 10
18 15 18 22 20 22 22 20 21 22 22 23 25 26 26 29 29 31 30 29 29 29 29 29 28 27 24 24 22 21 19 19 17 17 16 17 17 18 19 19 20 20 20 23 19 16 13 11 10
17 17 23 20 21 18 20 21 22 23 23 24 26 22 28 31 31 31 31 30 28 28 29 28 27 25 25 26 22 20 17 17 18 18 19 19 20 21 22 23 22 20 20 20 17 15 12 11 9
15 18 12 17 19 16 19 20 21 22 25 21 21 26 29 33 32 32 31 29 29 28 29 28 27 26 25 25 24 23 20 20 21 19 19 20 21 24 25 19 22 21 21 20 18 18 18 18 15
12 15 8 13 16 18 17 19 21 22 22 22 23 25 30 33 32 32 31 31 30 29 29 28 28 26 26 24 24 20 21 20 20 18 15 18 18 21 20 22 23 23 23 22 22 22 23 22 20
11 10 8 10 9 15 15 16 17 18 17 21 24 28 29 31 32 31 31 31 31 30 28 28 27 26 25 24 23 23 22 22 22 20 17 16 15 23 22 25 26 25 27 26 25 24 21 14 11
13 16 13 10 10 9 15 11 13 11 13 21 25 28 28 30 31 31 31 31 31 31 29 28 26 25 24 24 23 22 22 22 22 21 21 22 21 19 23 23 25 27 25 23 23 21 18 17 14
15 9 10 8 9 10 12 12 10 13 11 18 25 24 27 27 30 30 30 30 31 31 30 28 27 25 24 23 22 21 21 21 20 22 20 20 19 20 21 25 27 25 25 25 23 22 19 18 18
10 9 8 8 10 11 11 11 9 12 11 10 21 23 27 23 28 30 30 31 31 31 30 29 27 26 25 23 22 21 20 20 20 21 20 20 20 20 22 24 25 25 24 24 24 22 20 17 16
6 7 8 10 9 11 11 12 9 9 18 13 24 23 25 23 15 30 30 31 31 31 31 29 28 26 25 24 24 22 21 20 21 21 22 21 20 20 21 20 22 23 22 22 21 21 19 17 16
14 12 7 7 8 11 10 13 8 9 17 19 22 23 22 23 18 21 22 29 30 31 31 30 28 28 25 23 24 21 21 20 20 20 21 21 20 21 21 22 20 19 22 22 21 20 18 16 15
15 12 15 12 8 11 16 13 9 8 16 18 19 23 24 16 7 12 17 24 28 32 32 30 27 28 26 23 22 22 21 20 18 19 20 19 20 20 21 21 19 22 21 20 20 19 17 16 16
15 17 14 15 10 8 9 10 9 5 11 16 19 20 24 21 15 4 16 19 15 30 32 30 29 26 26 25 23 22 23 21 18 18 16 18 16 16 19 16 17 22 20 17 19 18 18 17 16
21 21 13 13 15 13 14 22 7 8 7 15 19 18 18 22 9 6 6 14 14 23 28 30 28 26 26 25 23 24 24 20 18 18 16 16 16 14 16 12 17 19 17 15 20 20 19 19 16
22 20 15 15 14 17 17 23 6 8 18 16 16 14 11 16 19 8 8 8 18 20 29 29 30 26 27 24 22 22 20 18 17 15 13 13 9 8 15 16 18 18 15 18 18 20 19 18 16
30 25 21 23 15 19 22 17 7 4 10 14 11 15 13 16 13 13 9 9 11 15 19 28 30 28 30 25 21 17 17 13 12 10 6 5 9 14 18 17 20 20 22 22 21 22 21 19 17
29 26 27 22 22 21 16 15 5 4 10 16 16 19 29 25 19 16 14 12 10 14 16 20 23 24 24 25 20 19 10 1 5 13 12 14 18 21 18 21 21 22 23 23 23 23 22 20 18
33 24 26 28 28 27 18 22 14 5 1 15 21 17 18 16 16 22 21 17 11 9 13 17 21 20 24 23 25 19 20 5 4 12 16 23 20 22 23 21 22 22 22 22 24 22 23 21 21
29 24 26 26 29 32 28 21 20 9 10 4 16 16 15 16 19 15 15 18 15 11 10 14 15 21 20 22 24 24 19 15 6 17 20 22 23 23 23 23 23 22 20 21 23 23 23 23 22
30 26 28 28 27 29 19 22 25 15 14 17 9 13 15 14 19 15 18 18 22 16 12 10 15 17 19 22 22 22 16 16 20 19 25 22 22 24 17 24 24 24 23 18 19 21 23 22 22
31 31 33 33 29 28 18 24 21 15 18 15 15 5 13 17 16 17 16 21 24 19 13 12 11 17 15 18 24 25 29 17 21 21 26 24 21 22 19 23 23 23 22 19 17 18 20 18 18
29 38 37 39 35 36 26 24 25 19 18 15 15 9 16 19 21 21 18 18 17 16 15 14 12 12 12 15 18 26 26 30 22 22 24 22 20 19 20 23 24 23 22 19 15 18 15 14 14
38 31 38 40 42 36 33 30 21 12 11 11 15 19 6 13 18 19 17 17 18 18 16 14 14 12 11 13 14 17 24 24 25 22 23 23 19 21 17 21 21 22 20 19 17 16 13 12 14
33 36 37 36 40 39 36 35 20 22 20 20 21 23 16 8 16 16 18 18 20 16 15 14 15 14 13 12 11 14 14 16 21 24 23 25 24 18 18 18 19 18 19 20 21 23 21 18 17
40 39 36 39 38 41 37 30 14 14 18 20 20 21 20 7 13 16 23 24 27 31 26 21 17 15 13 12 11 11 14 15 16 23 22 22 23 22 19 19 18 19 20 20 22 24 25 22 21
Wind_Direction
165 164 181 176 137 127 79 94 89 92 99 101 99 107 95 108 114 104 109 114 106 101 88 119 121 134 148 144 166 170 165 174 185 198 188 182 178 185 175 189 191 185 177 170 161 159 163 161 161
172 177 187 171 139 87 76 100 94 99 101 100 94 101 102 99 101 104 111 114 111 104 107 114 138 137 157 158 173 169 165 170 183 199 200 196 186 183 180 188 181 185 187 178 172 175 175 176 180
172 187 178 161 148 64 80 96 96 98 105 108 103 106 114 112 106 119 105 116 122 119 120 126 148 151 159 158 165 174 181 183 202 209 196 197 194 193 190 188 187 190 187 188 72 183 182 187 185
172 174 170 147 74 75 88 94 99 100 111 126 103 99 106 100 119 114 114 118 123 130 129 149 149 150 164 170 170 171 181 205 219 214 219 196 189 187 188 187 185 183 182 188 201 176 183 192 205
196 175 159 107 61 70 85 93 101 105 118 115 124 105 102 122 104 110 115 125 128 130 128 141 147 156 171 181 192 200 202 194 193 209 195 191 186 187 191 190 179 178 176 169 178 178 180 176 200
180 195 132 87 79 81 90 97 100 104 114 102 98 99 116 116 116 123 127 132 130 124 133 126 126 132 134 155 168 175 177 179 184 192 189 192 192 193 195 194 187 171 160 168 189 176 182 179 176
214 224 78 98 87 96 95 124 102 105 112 106 109 107 120 126 124 129 134 143 135 132 133 133 134 140 154 156 162 166 172 175 181 183 190 192 192 187 180 176 173 170 170 161 171 176 177 181 183
222 217 124 101 110 77 118 81 104 103 104 101 110 120 123 127 129 135 141 144 150 142 135 143 147 151 151 151 163 169 179 178 179 178 181 187 184 180 174 172 173 176 172 172 175 181 186 184 182
243 209 89 89 102 77 92 80 94 105 105 123 126 114 119 128 130 134 149 153 153 151 142 144 149 152 151 149 152 156 170 171 167 172 176 181 182 173 169 186 180 178 176 174 174 170 165 162 161
258 235 296 254 79 92 83 87 85 96 106 113 95 94 113 129 136 140 149 152 151 153 149 149 148 153 152 153 154 165 166 172 170 175 183 179 182 179 182 178 175 175 171 168 164 160 153 151 147
264 270 309 360 324 84 79 74 80 74 65 115 111 115 120 129 144 145 152 152 149 156 160 157 156 155 155 156 159 159 159 164 166 169 174 177 180 170 174 171 170 169 164 161 160 158 161 180 187
264 258 264 11 346 313 71 33 54 3 13 102 111 116 121 130 144 149 147 154 155 156 163 164 165 163 163 160 161 161 160 163 162 164 163 160 163 170 170 171 169 164 168 169 167 167 171 169 173
261 298 319 16 337 14 44 46 33 53 38 90 116 114 124 125 148 161 163 161 162 158 161 169 171 174 171 169 169 171 167 166 168 166 169 169 166 167 168 166 164 167 167 166 166 166 168 163 153
291 327 353 353 29 40 30 9 60 66 80 80 117 121 130 120 137 170 170 162 165 164 166 172 175 176 175 175 176 175 176 177 176 174 176 176 173 171 168 167 168 169 171 169 162 161 159 168 169
305 330 326 325 353 353 7 2 352 83 118 106 134 130 133 127 105 178 183 161 163 168 167 177 176 181 181 179 177 179 179 180 177 178 178 179 181 178 176 179 177 176 177 173 172 164 167 171 177
273 293 9 356 356 342 355 5 357 87 127 134 137 139 135 135 121 214 212 190 184 164 175 173 184 178 192 194 188 191 189 187 185 185 185 188 191 190 187 184 189 193 182 176 176 173 180 187 188
275 301 292 320 349 343 158 338 6 95 138 143 140 145 145 128 125 237 225 209 198 175 175 183 187 187 191 199 200 196 197 193 199 195 195 201 199 200 198 194 204 191 193 195 186 189 195 193 188
279 276 289 295 324 347 355 191 45 61 138 147 147 147 150 146 135 190 231 224 225 190 174 189 189 194 195 194 197 198 196 198 209 209 217 212 221 221 212 222 216 199 198 218 203 206 200 202 199
270 266 281 298 300 308 309 264 57 102 133 146 150 152 152 153 142 158 201 232 229 218 204 194 201 203 201 203 206 204 204 213 217 216 227 228 230 236 232 244 226 216 226 231 208 201 205 202 210
263 265 273 291 302 291 300 275 73 117 155 162 160 159 166 155 150 162 164 207 231 227 213 208 201 211 206 212 216 216 223 228 231 235 248 253 267 280 249 243 236 232 243 219 218 211 211 211 218
251 258 268 273 294 290 288 269 350 88 141 159 170 163 167 165 166 160 175 188 222 231 233 220 212 212 206 216 223 233 232 248 250 262 299 312 273 252 239 244 233 232 223 218 219 215 216 215 228
252 258 264 271 275 284 299 301 0 40 141 162 175 170 173 167 166 165 166 169 183 230 235 237 233 230 229 225 232 232 255 73 283 252 264 251 238 225 248 227 230 227 227 226 224 222 224 226 235
251 263 262 264 264 272 284 286 308 333 352 164 168 173 172 176 176 169 168 167 180 202 229 237 239 241 236 236 231 239 240 282 305 263 248 226 235 228 224 233 227 231 232 234 229 232 231 235 238
251 264 263 264 263 265 267 281 287 301 291 161 165 176 176 176 175 187 182 172 175 189 207 234 237 241 243 242 238 236 243 254 274 249 237 231 229 234 231 232 234 234 242 241 234 240 241 241 246
245 249 254 257 257 262 275 274 270 302 294 275 165 179 182 180 176 189 182 182 173 179 190 220 237 240 243 245 244 244 248 255 250 249 232 237 238 229 260 236 237 237 240 256 253 250 251 256 257
241 244 249 251 258 262 266 271 281 298 280 275 267 203 174 177 182 186 198 181 176 178 200 215 220 241 239 245 245 245 238 254 254 252 239 241 248 245 255 245 244 244 250 257 266 266 266 277 279
241 243 249 255 260 259 261 267 273 280 287 275 273 270 165 170 173 175 185 189 193 195 197 215 218 220 228 239 245 244 245 240 253 255 249 254 261 262 258 249 247 254 254 261 274 272 285 292 297
246 247 244 247 250 254 257 259 269 268 282 291 277 268 236 178 175 174 178 188 186 188 193 212 216 208 207 230 237 244 247 248 249 254 253 254 266 263 272 261 260 260 264 267 271 278 289 299 301
240 246 244 249 248 251 255 256 262 264 277 276 276 264 267 183 173 175 171 174 178 189 197 204 215 216 195 194 224 240 239 246 253 253 256 254 258 268 271 274 273 273 268 266 266 267 275 285 293
244 243 245 244 246 249 256 256 265 265 275 279 280 277 270 189 163 161 161 162 165 174 173 175 184 197 202 210 217 232 244 242 248 255 257 259 260 264 270 273 276 275 273 271 268 268 272 278 285